This is the latest recevied weather packets stored in our database for station/object N4QD-13. If no packets are shown the sender has not sent any weather packets the latest 10 day(s).
| Time | Temp. | Humidity | Pressure | Rain* | Wind** | Luminosity | Snow |
|---|---|---|---|---|---|---|---|
| 1777581021 | 18.89° C | 42% | 1011.2 hPa | 0 mm | - | 684 W/m² | - |
| 1777580721 | 17.78° C | 40% | 1011.4 hPa | 0 mm | - | 704 W/m² | - |
| 1777580417 | 18.33° C | 41% | 1011.1 hPa | 0 mm | - | 714 W/m² | - |
| 1777580113 | 18.33° C | 43% | 1011.1 hPa | 0 mm | - | 724 W/m² | - |
| 1777579810 | 18.89° C | 41% | 1011.2 hPa | 0 mm | - | 713 W/m² | - |
| 1777577685 | 17.22° C | 45% | 1011 hPa | 0 mm | - | 854 W/m² | - |
| 1777577078 | 18.89° C | 46% | 1011 hPa | 0 mm | - | 921 W/m² | - |
| 1777576776 | 17.78° C | 44% | 1011 hPa | 0 mm | - | 957 W/m² | - |
| 1777576172 | 18.33° C | 45% | 1010.9 hPa | 0 mm | - | 961 W/m² | - |
| 1777575872 | 17.78° C | 44% | 1010.8 hPa | 0 mm | - | 851 W/m² | - |
| 1777575266 | 17.22° C | 46% | 1010.7 hPa | 0 mm | - | 350 W/m² | - |
| 1777574658 | 17.22° C | 44% | 1010.9 hPa | 0 mm | - | 222 W/m² | - |
| 1777573137 | 18.33° C | 49% | 1011 hPa | 0 mm | - | 256 W/m² | - |
| 1777572834 | 17.78° C | 46% | 1010.8 hPa | 0 mm | - | 891 W/m² | - |
| 1777572530 | 18.33° C | 46% | 1010.7 hPa | 0 mm | - | 246 W/m² | - |
| 1777571616 | 18.89° C | 49% | 1010.8 hPa | 0 mm | - | 826 W/m² | - |
| 1777571314 | 18.89° C | 48% | 1010.9 hPa | 0 mm | - | 838 W/m² | - |
| 1777565550 | 18.33° C | 56% | 1011.3 hPa | 0 mm | - | 911 W/m² | - |
| 1777564030 | 18.33° C | 51% | 1011.4 hPa | 0 mm | - | 671 W/m² | - |
| 1777563726 | 18.89° C | 52% | 1011.4 hPa | 0 mm | - | 808 W/m² | - |
| 1777563117 | 18.33° C | 52% | 1011.6 hPa | 0 mm | - | 843 W/m² | - |
| 1777562208 | 17.22° C | 54% | 1011.9 hPa | 0 mm | - | 813 W/m² | - |
| 1777561906 | 16.67° C | 59% | 1011.7 hPa | 0 mm | - | 704 W/m² | - |
| 1777558575 | 14.44° C | 67% | 1011.5 hPa | 0 mm | - | 199 W/m² | - |
| 1777558271 | 15° C | 66% | 1011.7 hPa | 0 mm | - | 143 W/m² | - |
* Rain latest hour (hover to see other rain measurements)
** Current wind speed in m/s (hover to see current wind gust speed)